Regional Weather Roundup
Issued by NWS

Home | Current Version | Previous Version | Graphics & Text | Print | Product List | Glossary On
Versions: 1 2 3 4 5 6 7 8 9 10 11 12 13 14 15 16 17 18 19 20 21 22 23 24 25 26 27 28 29 30 31 32 33 34 35 36 37 38 39 40 41 42 43 44 45 46 47 48 49 50
000
ASUS45 KBOU 201407
RWRCO

WEATHER ROUNDUP FOR COLORADO
NATIONAL WEATHER SERVICE DENVER/BOULDER CO
700 AM MST SAT DEC 20 2014

NOTE: "FAIR" INDICATES FEW OR NO CLOUDS BELOW 12000 FEET WITH NO
SIGNIFICANT WEATHER AND/OR OBSTRUCTIONS TO VISIBILITY.

COZ001>005-013-030-031-201500-
...NORTHWEST COLORADO...

CITY           SKY/WX    TMP DP  RH WIND       PRES   REMARKS
CRAIG          CLOUDY    20  17  88 W3        30.15R
HAYDEN         PTCLDY    21  14  73 SE8       30.14R WCI  12
MEEKER         CLOUDY    22  17  81 CALM      30.15R
MOUNT WERNER   NOT AVBL
STEAMBOAT SPGS CLOUDY    16  15  93 CALM      30.14R
WALDEN         CLOUDY    21  14  73 SE8       30.06R WCI  12
$$

COZ006>008-011-201500-
...WEST CENTRAL VALLEYS...

CITY           SKY/WX    TMP DP  RH WIND       PRES   REMARKS
GRAND JUNCTION CLOUDY    28  24  85 SE8       30.19R WCI  20
MONTROSE       CLOUDY    25  19  78 SE6       30.21R WCI  18
EAGLE          MOCLDY    16  14  93 CALM      30.21F
RIFLE          CLOUDY    26  21  81 CALM      30.20R
DELTA          CLOUDY    28  22  80 NE6       30.22R WCI  21
NUCLA          MOCLDY    27  21  80 SE3       30.22S
$$

COZ017>023-064>068-201500-
...SOUTHWEST COLORADO...

CITY           SKY/WX    TMP DP  RH WIND       PRES   REMARKS
DURANGO        CLOUDY    24  21  88 E3        30.16F
CORTEZ         PTCLDY    22  19  89 E5        30.19R WCI  16
PAGOSA SPRINGS MOCLDY    14  13  94 CALM      30.17R
TELLURIDE      MOCLDY    22  14  71 CALM      30.16R
WOLF CREEK PAS PTCLDY    18   9  68 MISG      30.14R
$$

COZ009-010-012-014-032>034-037-058>063-201500-
...CENTRAL COLORADO...

CITY           SKY/WX    TMP DP  RH WIND       PRES   REMARKS
ASPEN          CLOUDY    12   8  84 S5        30.13F WCI   4
BUENA VISTA    MOCLDY    14   8  75 SE5       30.11S WCI   7
COPPER MTN     PTCLDY    19  14  79 W10G21    30.09F WCI   8
BERTHOUD PASS  MOCLDY    10   5  79 MISG      30.03S
COTTONWOOD PAS MOCLDY    28  12  50 N5        30.09R WCI  23
GUNNISON       MOCLDY     7   0  72 CALM      30.24R
KREMMLING      MOCLDY    12   9  85 CALM      30.17S
LEADVILLE      CLOUDY    16  10  77 NE7       30.09S WCI   6
MONARCH PASS   MOCLDY    14  10  85 MISG      30.19S
SALIDA         MOCLDY    23  10  56 N9        30.20R WCI  13
SUNLIGHT       LGT SNOW N/A N/A N/A CALM      30.13S
WILKERSON PASS CLOUDY    21  12  68 NW7       30.09S WCI  13
$$

COZ069>075-201500-
...SAN LUIS VALLEY/SANGRE DE CRISTO MOUNTAINS...

CITY           SKY/WX    TMP DP  RH WIND       PRES   REMARKS
ALAMOSA        CLOUDY     7   3  84 E3        30.16S
LA VETA PASS   MOCLDY    16  10  79 MISG      30.09S
SAGUACHE       MOCLDY    16   9  73 N5        30.16S WCI   9
$$

COZ035-036-038>040-201500-
...NORTHERN COLORADO FRONT RANGE...

CITY           SKY/WX    TMP DP  RH WIND       PRES   REMARKS
DENVER INTL AP CLOUDY    31  18  58 S10       29.97F WCI  22
DMNS CITY PARK   N/A     34  15  47 S5        29.98S WCI  29
AURORA         MOCLDY    33  17  52 S9        29.99S WCI  25
FRONT RANGE AP CLOUDY    30  23  74 S7        29.98F WCI  23
ERIE MUNI ARPT   N/A     24  20  82 CALM      29.98S
BOULDER MUN AP CLOUDY    30  19  64 CALM      29.97S
CENTENNIAL     MOCLDY    32  18  56 S7        29.98F WCI  26
BROOMFIELD     MOCLDY    30  18  59 CALM      29.98S
FORT COLLINS   CLOUDY    25  18  74 SE6       29.99F WCI  18
LONGMONT       CLOUDY    26  20  78 CALM      30.01R
$$

COZ041-046-047-076>085-087-088-201500-
...PIKES PEAK/PALMER DIVIDE AND SOUTHERN FOOTHILLS...

CITY           SKY/WX    TMP DP  RH WIND       PRES   REMARKS
COLO. SPRINGS  MOCLDY    26  15  63 N3        30.03R
A. F. ACADEMY  MOCLDY    23  14  70 NE5       30.03R WCI  16
ELLICOTT       NOT AVBL
FALCON         PTCLDY    24  15  67 NW5       30.03R WCI  18
FORT CARSON    PTCLDY    24  15  69 NW5       30.01S WCI  18
LIMON          MOCLDY    16  13  88 CALM      30.01F
MONUMENT HILL  PTCLDY    30  14  51 SW10      30.01R WCI  21
TRINIDAD       MOCLDY    26  12  55 W13       30.05F WCI  15
$$

COZ042>045-048>051-090-091-201500-
...NORTHEAST COLORADO...

CITY           SKY/WX    TMP DP  RH WIND       PRES   REMARKS
GREELEY ARPT   CLOUDY    21  12  68 CALM      29.99R
AKRON          MOCLDY    26  18  71 SW10      30.00R WCI  16
BURLINGTON     CLEAR     26  21  81 W10       30.02S WCI  16
WRAY           PTCLDY    23  19  85 SW9       30.02R WCI  13
STERLING       MOCLDY    18  14  86 CALM      30.02R
HOLYOKE        PTCLDY    21  18  86 W12       30.00S WCI   9
FORT MORGAN    MOCLDY    16  13  90 W7        30.01R WCI   6
$$

COZ086-089-092>099-201500-
...SOUTHEAST COLORADO...

CITY           SKY/WX    TMP DP  RH WIND       PRES   REMARKS
PUEBLO         PTCLDY    17  13  84 NW5       30.05R WCI  10
LA JUNTA       PTCLDY    25  20  81 W9        30.06R WCI  15
LAMAR          CLEAR     20  18  92 SW8       30.05S WCI  10
SPRINGFIELD      N/A     22  18  85 W3        30.04S
$$



USA.gov is the U.S. government's official web portal to all federal, state and local government web resources and services.